User: anonymous   Login
Location: Altmatt
(47.1333°N, 8.7000°E)
Time: 08:06:51
(UTC+00:00)
Language:

Cosmos 1812 - Orbit

View from above orbital plane
View from above orbital plane
View from above satellite
View from above satellite

Ground track
Ground track

The orbit data is extracted from the following two-line orbital elements,

1 17295U 87003A   20265.88618148 +.00000716 +00000-0 +36046-4 0  9998
2 17295 082.5143 050.4991 0002581 346.5490 013.5673 15.15613227839327
Epoch (UTC): 21 September 2020 21:16:06
Eccentricity: 0.0002581
inclination: 82.5143°
perigee height: 517 km
apogee height: 521 km
right ascension of ascending node: 50.4991°
argument of perigee: 346.5490°
revolutions per day: 15.15613227
mean anomaly at epoch: 13.5673°
orbit number at epoch: 83932

The dashed part of the orbit path shows where the satellite is in the earth's shadow,  

DLR